Overview Statistics Trail Chart Weather Telemetry Raw packets
 

This is the latest recevied weather packets stored in our database for station/object EA1HTW-13. If no packets are shown the sender has not sent any weather packets the latest 10 day(s).

<< 17 18 19 20 21 22 23 >>
Time Temp. Humidity Pressure Rain* Wind** Luminosity Snow
1777771933 15° C 84% 1007 hPa 0 mm - - -
1777771394 15° C 84% 1007.2 hPa 0 mm - - -
1777770855 15° C 84% 1007.2 hPa 0 mm - - -
1777770315 15° C 84% 1007.3 hPa 0 mm - - -
1777769774 15° C 84% 1007.3 hPa 0 mm - - -
1777769234 15° C 84% 1007.5 hPa 0 mm - - -
1777768694 15° C 84% 1007.6 hPa 0 mm - - -
1777768154 15° C 84% 1007.7 hPa 0 mm - - -
1777767615 15° C 84% 1007.6 hPa 0 mm - - -
1777767074 15° C 84% 1007.7 hPa 0 mm - - -
1777766535 15° C 84% 1007.9 hPa 0.25 mm - - -
1777765995 15° C 83% 1007.8 hPa 0.25 mm - - -
1777765455 15° C 83% 1008.1 hPa 0.25 mm - - -
1777764914 15° C 83% 1007.8 hPa 0.51 mm - - -
1777764374 15.56° C 83% 1007.9 hPa 2.03 mm - - -
1777763834 15.56° C 83% 1008.1 hPa 2.79 mm - - -
1777763295 15.56° C 83% 1008 hPa 2.79 mm - - -
1777762755 15.56° C 83% 1007.9 hPa 0 mm - - -
1777762214 15.56° C 82% 1008.1 hPa 0 mm - - -
1777761674 15.56° C 82% 1008.1 hPa 0 mm - - -
1777761134 15.56° C 81% 1008 hPa 0 mm - - -
1777760594 15.56° C 82% 1008.1 hPa 0 mm - - -
1777760055 15.56° C 82% 1008.2 hPa 0 mm - - -
1777759515 15.56° C 82% 1008.3 hPa 0 mm - - -
1777758974 15.56° C 82% 1008.3 hPa 0 mm - - -

* Rain latest hour (hover to see other rain measurements)
** Current wind speed in m/s (hover to see current wind gust speed)